STARLINK-1889 (47172 NORAD) Tracking and Keplerian Element Data

This shows tracking and keplerian element data for the satellite.

Feedback or suggestion? Click here.




ElementValue
Catalog47172
NameSTARLINK-1889
Epoch Orbit180
Epoch Day99.91667824
Epoch Year2021
RAAN83.7144
Inclination53.0579
Eccentricity0.0003217
Argument of Perigee104.5725
Mean Anonmoly313.8483
Mean Motion15.0591735
Decay Rate0.00029643
L11 47172U 20088BC 21099.91667824 .00029643 00000-0 20266-2 0 9995
L22 47172 53.0579 83.7144 0003217 104.5725 313.8483 15.05917350 1801

Live tracking and technical data element details for STARLINK-1889 (NORAD 47172). STARLINK-1889 can be tracked NOW for your location showing map with azimuth and elevation plus other details from your city location.

Track the satellite on the map from your city or location and see movement details for azimuth, elevation, latitude, longitude, range, height, and movement on the map or in text.







IsCatalogInMostPopularTable: catalog: 47172, numindb: 51
Update: records affected: 1



GetName: 47172 STARLINK-1889

Hit Count: updated at: Sat, 10 Apr 2021 19:54:12 GMT